Location: Lane
(33.5226°N, 79.8788°W)
Time: 07:11:48
(UTC+00:00)

Tiros 1 despin weight - Pass Details

Date: 03 October 2022
Orbit: 590 x 637 km, 48.2° (Epoch: 28 November)

Event Time Altitude Azimuth Distance (km) Brightness Sun altitude
Rises 02:32:35 0° 314° (NW) 2,900 ? -43.1°
Enters shadow 02:33:57 - 319° (NW) 2,395 ? -43.4°
Reaches altitude 10° 02:35:04 10° 324° (NW) 2,000 - -43.6°
Maximum altitude 02:39:15 33° 29° (NNE) 1,061 - -44.3°
Drops below altitude 10° 02:43:27 10° 94° (E) 2,014 - -45.1°
Sets 02:45:58 0° 104° (ESE) 2,924 - -45.5°
